Home   Weather   Minot   Past weeks

Flag for USA Past Weather in Minot, North Dakota, USA — Yesterday and Last 2 Weeks

44 °F


Feels Like: 42 °F
Forecast: 44 / 60 °F
Wind: 5 mph from South

Location: Minot International Airport

Current Time: Oct 26, 2016 at 6:32:08 AM

Latest Report: Oct 26, 2016 at 5:54 AM

Visibility: 1 mi

Pressure: 30.07 "Hg

Humidity: 100%

Dew Point: 44 °F

Location of MinotLocation

Past Weather in Minot — Graph


Minot Temperature Yesterday

Maximum temperature yesterday: 53 °F (at 1:54 PM)
Minimum temperature yesterday: 35 °F (at 8:54 AM)
Average temperature yesterday: 43 °F

High & Low Weather Summary for the Past Weeks

High67 °F (Oct 15, 2:54 PM)100% (Oct 26, 3:54 AM)30.38 "Hg (Oct 26, 3:54 AM)
Low28 °F (Oct 12, 11:54 PM)30% (Oct 15, 3:54 PM)29.35 "Hg (Oct 16, 4:54 PM)
Average45 °F73%29.96 "Hg
* Reported Oct 11 4:54 AM — Oct 26 4:54 AM, Minot, Weather by CustomWeather, © 2016

Note: Actual official high and low records may vary slightly from our data, if they occured in-between our weather recording intervals... More about our weather records


Minot Weather History for the Previous 24 Hours

Scroll right to see more
Time TempWeatherWind HumidityBarometerVisibility
4:54 AM
Wed, Oct 26
44 °FFog.No wind100%30.07 "Hg2 mi
3:54 AM44 °FFog.3 mph100%30.06 "Hg4 mi
2:54 AM44 °FFog.3 mph96%30.06 "Hg3 mi
1:54 AM44 °FFog.8 mph96%30.06 "Hg4 mi
12:54 AM44 °FLow clouds.5 mph96%30.08 "Hg7 mi
11:54 PM
Tue, Oct 25
44 °FLow clouds.9 mph96%30.08 "Hg9 mi
10:54 PM44 °FRain. Fog.9 mph96%30.09 "Hg4 mi
9:54 PM43 °FFog.14 mph97%30.08 "Hg6 mi
8:54 PM44 °FFog.13 mph96%30.10 "Hg4 mi
7:54 PM45 °FMostly cloudy.16 mph90%30.10 "Hg10 mi
6:54 PM47 °FOvercast.22 mph83%30.08 "Hg10 mi
5:54 PM49 °FOvercast.16 mph77%30.06 "Hg10 mi
4:54 PM50 °FOvercast.18 mph68%30.06 "Hg10 mi
3:54 PM51 °FOvercast.16 mph63%30.06 "Hg10 mi
2:54 PM53 °FMostly cloudy.18 mph61%30.05 "Hg10 mi
1:54 PM53 °FPassing clouds.20 mph59%30.07 "Hg10 mi
12:54 PM50 °FMostly cloudy.16 mph63%30.10 "Hg10 mi
11:54 AM47 °FOvercast.16 mph69%30.11 "Hg10 mi
10:54 AM44 °FOvercast.12 mph73%30.12 "Hg10 mi
9:54 AM40 °FSunny.12 mph80%30.14 "Hg10 mi
8:54 AM35 °FSunny.7 mph92%30.13 "Hg10 mi
7:54 AM37 °FClear.7 mph86%30.13 "Hg10 mi
6:54 AM38 °FClear.8 mph83%30.13 "Hg10 mi
Weather by CustomWeather, © 2016

See weather overviewHow to use our weather pages